This is the latest recevied weather packets stored in our database for station/object DR0T. If no packets are shown the sender has not sent any weather packets the latest 10 day(s).
| Time | Temp. | Humidity | Pressure | Rain* | Wind** | Luminosity | Snow |
|---|---|---|---|---|---|---|---|
| 1777563752 | 14.44° C | 32% | 1026.3 hPa | 0 mm | - | - | - |
| 1777563447 | 14.44° C | 33% | 1026.2 hPa | 0 mm | - | - | - |
| 1777563150 | 14.44° C | 32% | 1026.2 hPa | 0 mm | - | - | - |
| 1777562844 | 14.44° C | 32% | 1026.2 hPa | 0 mm | - | - | - |
| 1777562547 | 14.44° C | 32% | 1026.3 hPa | 0 mm | - | - | - |
| 1777562242 | 14.44° C | 32% | 1026.3 hPa | 0 mm | - | - | - |
| 1777561941 | 14.44° C | 32% | 1026.4 hPa | 0 mm | - | - | - |
| 1777561640 | 15° C | 32% | 1026.5 hPa | 0 mm | - | - | - |
| 1777561338 | 15° C | 32% | 1026.4 hPa | 0 mm | - | - | - |
| 1777561043 | 14.44° C | 33% | 1026.4 hPa | 0 mm | - | - | - |
| 1777560736 | 15° C | 32% | 1026.3 hPa | 0 mm | - | - | - |
| 1777560454 | 15° C | 32% | 1026.4 hPa | 0 mm | - | - | - |
| 1777560153 | 15° C | 32% | 1026.4 hPa | 0 mm | - | - | - |
| 1777559852 | 15° C | 33% | 1026.3 hPa | 0 mm | - | - | - |
| 1777559553 | 15° C | 32% | 1026.4 hPa | 0 mm | - | - | - |
| 1777559249 | 14.44° C | 33% | 1026.4 hPa | 0 mm | - | - | - |
| 1777558948 | 15.56° C | 31% | 1026.5 hPa | 0 mm | - | - | - |
| 1777558649 | 15° C | 34% | 1026.5 hPa | 0 mm | - | - | - |
| 1777558346 | 14.44° C | 33% | 1026.5 hPa | 0 mm | - | - | - |
| 1777558044 | 15° C | 33% | 1026.6 hPa | 0 mm | - | - | - |
| 1777557743 | 13.89° C | 33% | 1026.7 hPa | 0 mm | - | - | - |
| 1777557442 | 14.44° C | 32% | 1026.7 hPa | 0 mm | - | - | - |
| 1777557141 | 13.89° C | 31% | 1026.8 hPa | 0 mm | - | - | - |
| 1777556846 | 14.44° C | 32% | 1026.6 hPa | 0 mm | - | - | - |
| 1777556538 | 15° C | 31% | 1026.7 hPa | 0 mm | - | - | - |
* Rain latest hour (hover to see other rain measurements)
** Current wind speed in m/s (hover to see current wind gust speed)